[[{"header":{"parameterUnit":"m.s-1","parameterCategory":1,"la1":30.2991,"la2":30.254,"lo1":-89.0895,"lo2":-89.0444,"dy":0.0017,"dx":0.0017,"nx":28,"ny":28,"refTime":"2025-04-14T21:00:00:Z","depth":0,"parameterNumber":2,"parameterNumberName":"U-component_of_WINDS"},"data":[0,0,0,0,0,0,0,0,0,0,0,0,0,0,0,0,0,0,0,0,0,0,0,0,0,0,0,0,0,0,0,0,0,0,0,0,0,0,0,0,0,0,0,0,0,0,0,0,0,0,0,0,0,0,0,0,0,0,1.8825,1.8825,0,1.877,1.8769,1.8769,1.8677,1.8675,1.8673,1.8672,1.8619,1.862,1.862,0,0,0,0,0,0,0,0,0,0,0,0,0,1.8857,1.8857,1.8825,1.8825,1.8824,1.877,1.8769,1.8769,1.8677,1.8675,1.8673,1.8671,1.8619,1.862,1.862,0,0,0,0,0,0,0,0,0,0,0,0,0,1.8827,1.8857,1.8826,1.8772,1.8766,1.877,1.8769,1.8768,1.8677,1.8675,1.8672,1.867,1.8619,1.862,1.862,1.8673,0,0,1.8621,1.8621,0,0,0,0,0,0,0,0,1.8829,1.8826,1.878,1.8775,1.8769,1.8727,1.8761,1.8737,1.8678,1.8711,1.8672,1.8669,1.8658,1.8655,1.865,1.8671,1.8668,1.8621,1.8621,1.8621,1.8621,0,0,0,0,0,0,0,1.8831,1.8828,1.8804,1.878,1.8773,1.8752,1.8745,1.8756,1.87,1.8708,1.8701,1.8696,1.8654,1.865,1.8648,1.8668,1.8621,1.8621,1.8621,1.8621,1.873,1.8733,0,0,0,0,0,0,1.884,1.883,1.8805,1.8802,1.8793,1.8754,1.8746,1.8744,1.8699,1.869,1.8698,1.8692,1.8651,1.8648,1.8646,1.8706,1.8621,1.8621,1.8622,1.8728,1.8731,1.8734,0,0,0,0,0,0,1.8841,1.8839,1.8808,1.8814,1.8808,1.8756,1.8754,1.8744,1.8739,1.8692,1.8682,1.8704,1.8649,1.8646,1.8667,1.8703,1.8621,1.8622,1.8725,1.8729,1.8732,1.8826,0,0,0,0,0,0,1.8843,1.884,1.8858,1.8815,1.8808,1.8828,1.8756,1.8745,1.874,1.8731,1.8694,1.8686,1.8646,1.8667,1.8667,1.8702,1.8622,1.8721,1.8726,1.8731,1.882,1.8833,1.8844,0,0,0,0,0,1.8844,1.8887,1.886,1.8857,1.883,1.883,1.8827,1.8779,1.8743,1.8762,1.8731,1.8687,1.8699,1.867,1.8669,1.8705,1.8719,1.8725,1.8731,1.8814,1.883,1.8844,0,0,0,0,0,0,1.8937,1.8881,1.8849,1.888,1.886,1.8815,1.8837,1.8798,1.8789,1.8782,1.8724,1.8717,1.8746,1.8727,1.8696,1.8755,1.8702,1.8708,1.8765,1.878,1.8793,1.8797,1.8622,0,0,0,0,0,1.8961,1.8965,1.8916,1.8947,1.8939,1.889,1.8889,1.8854,1.8832,1.8824,1.8795,1.8777,1.8776,1.8777,1.8774,1.8817,1.8808,1.8841,1.8853,1.8863,1.887,1.8892,1.8906,1.8754,1.8754,1.8754,0,0,1.9011,1.8981,1.8986,1.8965,1.8946,1.8953,1.8884,1.8893,1.8898,1.8826,1.8843,1.8822,1.8798,1.8831,1.8844,1.8816,1.891,1.8871,1.888,1.888,1.89,1.8914,1.8927,1.8758,1.8757,1.8757,0,0,1.9105,1.9082,1.9106,1.9088,1.906,1.9027,1.9033,1.8994,1.8976,1.8993,1.8939,1.8945,1.8946,1.8931,1.8924,1.9014,1.8973,1.9015,1.908,1.9102,1.9114,1.9124,1.9157,1.9169,1.9021,1.9022,1.9022,0,1.9171,1.9176,1.9124,1.9137,1.913,1.9064,1.9089,1.9075,1.9048,1.9045,1.9015,1.9014,1.8994,1.9022,1.9044,1.904,1.9047,1.9019,1.9116,1.9126,1.9135,1.9165,1.9178,1.9027,1.9026,1.9026,1.9025,0,1.9259,1.9265,1.9288,1.9262,1.9258,1.9277,1.9229,1.9232,1.9198,1.9169,1.9188,1.9161,1.9152,1.9156,1.9124,1.9181,1.9165,1.9126,1.9072,1.9155,1.9183,1.9195,1.9034,1.9032,1.9031,1.903,0,0,1.9409,1.9355,1.9364,1.9352,1.9317,1.9321,1.9338,1.9328,1.9332,1.9316,1.933,1.9332,1.9296,1.9288,1.9254,1.9273,1.9348,1.9232,1.9231,1.9255,1.941,1.9439,1.9454,1.932,1.9322,1.9324,1.9412,0,1.9496,1.952,1.9474,1.951,1.9515,1.9453,1.9469,1.945,1.9424,1.9426,1.9397,1.94,1.9352,1.9347,1.9364,1.9335,1.9378,1.9328,1.9334,1.9335,1.9342,1.9468,1.9499,1.9583,1.9423,1.9425,1.9426,0,1.96,1.9589,1.9625,1.9588,1.9589,1.9603,1.9591,1.9593,1.9571,1.9551,1.9542,1.9501,1.9517,1.9466,1.9488,1.9455,1.9455,1.9442,1.9444,1.9442,1.9385,1.9471,1.9609,1.9622,1.9442,1.9441,1.944,0,1.9707,1.9701,1.9721,1.9713,1.9671,1.9683,1.9666,1.9641,1.9638,1.9628,1.9626,1.9619,1.9615,1.9611,1.957,1.9536,1.9598,1.9542,1.9583,1.9584,1.9598,1.9598,1.9739,1.9598,1.9598,1.9598,1.9598,0,1.9808,1.9833,1.9769,1.9782,1.9809,1.9756,1.9785,1.9762,1.9741,1.975,1.9696,1.9706,1.9651,1.9655,1.9624,1.9647,1.9646,1.9631,1.9623,1.9636,1.9638,1.9635,1.9628,1.9601,1.9601,1.96,1.9599,0,1.9932,1.9889,1.9908,1.9867,1.9857,1.9879,1.9844,1.9855,1.9826,1.9838,1.9838,1.9793,1.9796,1.9754,1.9749,1.9728,1.9766,1.9747,1.9773,1.9767,1.981,1.9807,1.9954,1.9971,1.982,1.9822,1.9823,0,1.9999,2.0017,1.9977,1.9979,1.9964,1.9967,1.9964,1.9914,1.9914,1.9891,1.9905,1.9903,1.9899,1.9906,1.9874,1.987,1.985,1.9902,1.985,1.9863,1.9852,1.9851,1.9853,1.9914,1.9916,1.9917,1.9918,0,2.0124,2.0102,2.0099,2.0089,2.0087,2.0077,2.0063,2.0068,2.0014,2.0016,2.0017,2.0014,2.0008,2.0008,1.9998,1.9982,1.9942,1.9935,1.9944,1.9958,1.9973,1.9966,1.9803,1.9932,1.9931,1.993,1.9929,1.9928,2.0221,2.0234,2.0209,2.0207,2.0192,2.0181,2.019,2.0162,2.0162,2.0152,2.0124,2.013,2.0109,2.0092,2.008,2.0086,2.006,2.0074,2.0077,2.0081,2.0089,1.9972,2.0084,2.0083,2.0083,2.0082,2.0082,0,2.0343,2.0324,2.0323,2.0306,2.0306,2.0267,2.0251,2.0253,2.0259,2.0243,2.0239,2.0242,2.0241,2.0209,2.0205,2.0216,2.0197,2.0216,2.0215,2.0212,2.0112,2.0104,2.0231,2.0231,2.0231,2.0231,2.0231,2.0231,2.0407,2.0427,2.0403,2.0416,2.0397,2.0402,2.0396,2.0387,2.0373,2.0378,2.0376,2.0355,2.0333,2.0327,2.0325,2.0316,2.0317,2.0342,2.0327,2.0234,2.0219,2.0206,2.0198,2.0343,2.0343,2.0427,2.0428,2.0429]},{"header":{"parameterUnit":"m.s-1","parameterCategory":1,"la1":30.2991,"la2":30.254,"lo1":-89.0895,"lo2":-89.0444,"dy":0.0017,"dx":0.0017,"nx":28,"ny":28,"refTime":"2025-04-14T21:00:00:Z","depth":0,"parameterNumber":3,"parameterNumberName":"V-component_of_WINDS"},"data":[0,0,0,0,0,0,0,0,0,0,0,0,0,0,0,0,0,0,0,0,0,0,0,0,0,0,0,0,0,0,0,0,0,0,0,0,0,0,0,0,0,0,0,0,0,0,0,0,0,0,0,0,0,0,0,0,0,0,4.0139,4.014,0,4.0245,4.0246,4.0247,4.0253,4.0252,4.0251,4.025,4.0351,4.0355,4.0359,0,0,0,0,0,0,0,0,0,0,0,0,0,3.9936,3.994,4.0139,4.014,4.0142,4.0245,4.0246,4.0248,4.0254,4.0252,4.0251,4.0249,4.035,4.0354,4.0359,0,0,0,0,0,0,0,0,0,0,0,0,0,4.0031,3.9941,4.0139,4.0157,4.016,4.0244,4.0246,4.0248,4.0254,4.0252,4.025,4.0249,4.0348,4.0354,4.036,4.0431,0,0,4.0377,4.038,0,0,0,0,0,0,0,0,4.0026,4.0039,4.0153,4.0156,4.0159,4.0234,4.0212,4.0309,4.0254,4.0218,4.025,4.0248,4.0313,4.0322,4.0345,4.0435,4.044,4.0378,4.0381,4.0384,4.0385,0,0,0,0,0,0,0,4.0019,4.0034,4.0181,4.0155,4.0159,4.0158,4.017,4.023,4.0274,4.0221,4.0222,4.0235,4.0315,4.034,4.0348,4.0441,4.0377,4.0383,4.0386,4.0388,4.0595,4.0597,0,0,0,0,0,0,4.001,4.0029,4.0177,4.0184,4.0087,4.0163,4.0176,4.0212,4.0274,4.0281,4.0236,4.0235,4.0331,4.0341,4.0351,4.0439,4.0383,4.0389,4.0392,4.0593,4.0595,4.0597,0,0,0,0,0,0,4.0006,4.0023,4.0173,4.0107,4.0126,4.0169,4.0209,4.0215,4.024,4.0285,4.0292,4.0254,4.033,4.0343,4.0411,4.0442,4.0391,4.0397,4.059,4.0594,4.0596,4.0614,0,0,0,0,0,0,4.0,4.0022,4.0051,4.0107,4.0129,4.0233,4.0211,4.0218,4.0251,4.025,4.0304,4.0311,4.033,4.0403,4.0417,4.0449,4.0401,4.0588,4.0592,4.0595,4.0611,4.0617,4.0623,0,0,0,0,0,3.9993,4.005,4.0052,4.007,4.0167,4.0235,4.0247,4.027,4.0253,4.0282,4.0311,4.0309,4.0437,4.041,4.0426,4.046,4.0586,4.0591,4.0595,4.0608,4.0616,4.0623,0,0,0,0,0,0,3.9993,4.0057,4.0061,4.0138,4.0182,4.0236,4.0273,4.0277,4.0324,4.0321,4.0344,4.0356,4.0424,4.0449,4.0418,4.0532,4.0509,4.0517,4.0514,4.0522,4.0527,4.052,4.0406,0,0,0,0,0,4.0002,4.0055,4.0107,4.017,4.0192,4.0229,4.0259,4.0273,4.0318,4.0335,4.0369,4.0411,4.046,4.0492,4.054,4.0615,4.0626,4.0646,4.0652,4.0657,4.0663,4.0705,4.0714,4.0613,4.0613,4.0613,0,0,4.0021,4.0063,4.0094,4.0172,4.0207,4.0259,4.0244,4.0299,4.0338,4.0343,4.041,4.0437,4.0484,4.0556,4.0589,4.0579,4.0694,4.0663,4.0666,4.067,4.071,4.072,4.0728,4.0616,4.0615,4.0615,0,0,4.0083,4.012,4.0178,4.0214,4.0268,4.0292,4.0306,4.0361,4.0379,4.0447,4.0453,4.0497,4.0582,4.0616,4.0645,4.0721,4.0721,4.0735,4.0766,4.0806,4.0814,4.0822,4.0849,4.0858,4.0742,4.0742,4.0742,0,4.0099,4.018,4.0205,4.0262,4.0296,4.0305,4.0363,4.0395,4.0462,4.0484,4.0472,4.0579,4.0612,4.0692,4.0711,4.0733,4.0749,4.0729,4.0812,4.0819,4.0826,4.0852,4.0862,4.0743,4.0743,4.0743,4.0743,0,4.0198,4.0254,4.0293,4.036,4.0398,4.0454,4.0486,4.0521,4.0531,4.0556,4.0625,4.0665,4.0722,4.0742,4.0751,4.0823,4.0815,4.0807,4.0784,4.0837,4.0862,4.0872,4.0745,4.0745,4.0744,4.0744,0,0,4.0261,4.0343,4.0357,4.0388,4.0449,4.0492,4.0548,4.0606,4.0635,4.068,4.0727,4.08,4.0793,4.0825,4.0839,4.0874,4.0932,4.0862,4.0863,4.0873,4.1013,4.1019,4.103,4.0933,4.0935,4.0936,4.1009,0,4.033,4.0433,4.0458,4.0546,4.0597,4.0608,4.0657,4.0698,4.0723,4.0769,4.0795,4.0846,4.0834,4.0854,4.0889,4.0917,4.096,4.0912,4.0975,4.0977,4.0963,4.1043,4.1049,4.1116,4.1019,4.1021,4.1022,0,4.0424,4.0474,4.0568,4.0623,4.0646,4.069,4.0745,4.0789,4.0836,4.0852,4.0889,4.0899,4.0956,4.0931,4.101,4.0977,4.1004,4.1022,4.1025,4.1031,4.1003,4.1052,4.1138,4.1148,4.1038,4.1036,4.1035,0,4.0461,4.0552,4.062,4.0646,4.0712,4.0743,4.0771,4.0817,4.0851,4.0898,4.092,4.0973,4.1001,4.1041,4.1064,4.1044,4.1141,4.1118,4.1154,4.1154,4.1174,4.1172,4.1266,4.1192,4.1191,4.1191,4.1191,0,4.0535,4.0592,4.0638,4.068,4.0743,4.0771,4.0832,4.086,4.0901,4.0947,4.0958,4.1001,4.103,4.1076,4.1094,4.1157,4.1169,4.1182,4.1186,4.1181,4.118,4.1199,4.1195,4.1194,4.1193,4.1193,4.1192,0,4.0587,4.0621,4.0696,4.0753,4.0769,4.0813,4.0862,4.0901,4.0927,4.0985,4.1,4.104,4.1095,4.1122,4.119,4.1202,4.1273,4.1274,4.1257,4.1259,4.1294,4.129,4.1403,4.142,4.1334,4.1335,4.1336,0,4.0632,4.0676,4.074,4.0773,4.0803,4.0856,4.0891,4.0919,4.0954,4.1012,4.1045,4.1101,4.1148,4.1235,4.1268,4.1319,4.1322,4.1358,4.133,4.1323,4.1322,4.132,4.1324,4.1363,4.1364,4.1364,4.1365,0,4.0708,4.0723,4.0774,4.0832,4.0874,4.092,4.0965,4.0991,4.1026,4.1065,4.1123,4.116,4.123,4.1285,4.134,4.1367,4.1371,4.1374,4.1385,4.138,4.1369,4.1376,4.1271,4.1371,4.137,4.137,4.1369,4.1369,4.0758,4.0798,4.085,4.0907,4.0944,4.0987,4.1028,4.1059,4.1109,4.1171,4.1183,4.1245,4.129,4.1365,4.1394,4.144,4.1432,4.1448,4.1453,4.1456,4.1458,4.1362,4.145,4.145,4.145,4.145,4.145,0,4.0835,4.0869,4.0921,4.0986,4.103,4.1034,4.1084,4.112,4.1175,4.1219,4.1265,4.1331,4.1385,4.1423,4.1478,4.1508,4.1511,4.1521,4.1519,4.1525,4.1462,4.1447,4.1518,4.1518,4.1518,4.1518,4.1518,4.1518,4.088,4.0949,4.097,4.1057,4.109,4.1152,4.118,4.1219,4.1254,4.1329,4.1375,4.14,4.1442,4.1499,4.1549,4.1558,4.1577,4.1587,4.1597,4.1537,4.153,4.1523,4.1509,4.1591,4.1592,4.1656,4.1657,4.1658]}]]